COSMOS 1275 DEB, 42119

Orbit data source: Space-Track

COSMOS 1275 DEB, 42119 is space debris in LEO originally from a launch on Thu, 04 Jun 1981 UTC launched from the Plesetsk Missile And Space Complex (PKMTR). Debris objects in space refer to the collection of defunct objects orbiting the Earth. Examples of debris include non-operational satellites, rocket bodies, and fragments generated from explosions, collisions, or faulty payload assembly.

Loading next visibility...
Identifier
42119, 1981-053QF
Orbit
LEO
Last TLE update
9 months ago
Origin
Manufacturer
Unknown
Mission
Spacecraft
Bus & Motor
Unknown
Mass
Unknown
Launch date (UTC)
1981-06-04 (44 years ago)
Launch vehicle
Unknown
Launch site
Plesetsk Missile And Space Complex (PKMTR)
Object type
Payload
Rocket body
Debris
Shape & HBR
Unknown
Radar Cross Section
Small (<0.1 m²)

Expand to show TLE details & history

TLE from 9 months ago
0 COSMOS 1275 DEB
1 42119U 81053QF  24297.34420029  .00001497  00000-0  12675-2 0  9996
2 42119  83.1749 321.8065 0047362  34.3820 326.0392 13.86426528 23801
Epoch: 2024-10-23T08:15Z
TLE epoch observation values (Epoch: 2024-10-23T08:15:38.905Z)
Latitude
0.00001°
Longitude
165.65089°
Altitude
915.396 km
Speed
7.409 km/s
True Right ascension
21h 27m 13s
True Declination
0° 00' 00"
Sunlit
Object was in daylight at epoch
Visualization orbit readout
Latitude
43.69143°
Longitude
148.32583°
Altitude
965.95 km
Speed
7.362 km/s
Apparent Right ascension
15h 50m 19s
Apparent Declination
22° 35' 06"
Sunlit
Object is in daylight
Visualization observer readout
Local Sidereal Time
22:02:55
Azimuth
289.536° WNW
Elevation
11.977°
Doppler factor
1
Orbital elements
Apogee altitude
972.957 km
Perigee altitude
903.653 km
Semi-major axis
7,316.442 km
Eccentricity
0.00474
Inclination
83.1749°
RAAN
321.8065°
Arg. of periapsis
34.382°
True anomaly
Unknown
Mean anomaly
326.0392°
Eccentric anomaly
Unknown
Mean motion
3.46811 °/min
Orbital period
103.8 mins
BSTAR
0.0012675
Loading maneuver chart data...
Loading SW <> Apogee altitude chart data...
Loading historical data...
Loading historical data...
Loading historical data...
Loading historical data...
Loading historical data...
Loading historical data...
Loading historical data...

COSMOS 1275 DEB Visibility forecast

Observer location: undefined°, undefined°

Span
Click to sort rows by Start time (UTC) header in descending order
Start Az.
Max El. time (UTC)
Max El. Az.
Max El.
End time (UTC)
End Az.
8 mins2025-07-11 19:37:09.792Z130.28° SE2025-07-11 19:41:09.792Z78.453° E22.67°2025-07-11 19:45:09.792Z34.092° NE
9 mins2025-07-11 21:21:09.792Z220.269° SW2025-07-11 21:25:09.792Z287.42° WNW33.949°2025-07-11 21:30:09.792Z351.532° N
6 mins2025-07-12 06:29:09.792Z41.883° NE2025-07-12 06:31:09.792Z64.919° ENE17.836°2025-07-12 06:35:09.792Z108.766° ESE
10 mins2025-07-12 08:12:09.792Z343.097° N2025-07-12 08:16:09.792Z288.218° WNW41.308°2025-07-12 08:22:09.792Z188.885° SSW
|